Regional Weather Roundup
Issued by NWS

Home | Current Version | Previous Version | Graphics & Text | Print | Product List | Glossary On
Versions: 1 2 3 4 5 6 7 8 9 10 11 12 13 14 15 16 17 18 19 20 21 22 23 24 25 26 27 28 29 30 31 32 33 34 35 36 37 38 39 40 41 42 43 44 45 46 47 48 49 50
000
ASUS45 KPSR 122310
RWRAZ

ARIZONA REGIONAL HOURLY WEATHER ROUNDUP
NATIONAL WEATHER SERVICE PHOENIX AZ
400 PM MST SAT JUL 12 2014

NOTE: FAIR INDICATES FEW OR NO CLOUDS BELOW 12,000 FEET WITH NO
SIGNIFICANT WEATHER AND/OR OBSTRUCTIONS TO VISIBILITY.

AZZ001>003-036-130000-
NORTHWEST ARIZONA

CITY           SKY/WX    TMP DP  RH WIND       PRES   REMARKS
BULLHEAD CITY  PTSUNNY  108 N/A N/A SW9       29.81F
KINGMAN        MOSUNNY  100  37  11 SW15G23   30.02F
$$

AZZ004>008-015-016-018-130000-
NORTH CENTRAL ARIZONA

CITY           SKY/WX    TMP DP  RH WIND       PRES   REMARKS
GRAND CANYON   MOSUNNY   85  41  21 N6        30.28F
WILLIAMS       PTSUNNY   84  45  24 NE7       30.33F
PRESCOTT       PTSUNNY   93  44  18 VRB7      30.12F
FLAGSTAFF      MOSUNNY   84  45  25 NE10      30.29F
PAYSON         DRIZZLE   79  57  47 E6        30.18F
PAGE           SUNNY     99  41  13 VRB6      30.06F
$$

AZZ009>014-017-130000-
NORTHEAST ARIZONA

CITY           SKY/WX    TMP DP  RH WIND       PRES   REMARKS
WINSLOW        MOSUNNY   97  47  18 NE8       30.09F
SAINT JOHNS    MOSUNNY   90  43  19 VRB3      30.13F
WINDOW ROCK    PTSUNNY   87  45  23 VRB7      30.24F
SHOW LOW       PTSUNNY   79  48  34 S18       30.26S
$$

AZZ023-130000-
GREATER PHOENIX AREA

CITY           SKY/WX    TMP DP  RH WIND       PRES   REMARKS
PHOENIX        PTSUNNY  109  46  12 SW12      29.79F HX 105
BUCKEYE          N/A    108  41  10 W9        29.80F HX 102
GLENDALE       MOSUNNY  109  43  10 SW12      29.80F HX 104
DEER VALLEY    MOSUNNY  103  44  13 VRB5      29.82F
SCOTTSDALE     MOSUNNY  105  48  14 SW7       29.84F HX 101
MESA-FALCON    PTSUNNY   70  50  49 W6        29.82F
MESA-GATEWAY   PTSUNNY  104  43  12 W6        29.85F
CHANDLER       PTSUNNY  106  46  13 SW9       29.81F HX 102
$$

AZZ027-028-130000-
SOUTHWEST MARICOPA COUNTY AND PINAL COUNTY

CITY           SKY/WX    TMP DP  RH WIND       PRES   REMARKS
CASA GRANDE    SUNNY    106  48  14 CALM      29.85F HX 102
$$

AZZ503-504-507>509-130000-
SOUTHEAST ARIZONA

CITY           SKY/WX    TMP DP  RH WIND       PRES   REMARKS
TUCSON         PTSUNNY   98  53  22 NE6       29.94F
NOGALES        PTSUNNY   94  53  25 VRB7      30.02F
SIERRA VISTA   SUNNY     88  55  32 CALM      30.09F
DOUGLAS        MOSUNNY   94  55  26 VRB6      30.02F
SAFFORD        MOSUNNY   99  48  17 VRB3      29.94F
$$

AZZ020-021-025-026-031-130000-
SOUTHWEST ARIZONA

CITY           SKY/WX    TMP DP  RH WIND       PRES   REMARKS
YUMA           SUNNY    107  39  10 VRB5      29.78F HX 101
$$

CAZ031-033-041-043-047-048-061-130000-
SOUTHERN CALIFORNIA

CITY           SKY/WX    TMP DP  RH WIND       PRES   REMARKS
DOWNTOWN L.A.  MOSUNNY   78  61  55 VRB5      29.94F
L.A. AIRPORT   PTSUNNY   73  61  65 SW12      29.96F
SAN DIEGO      PTSUNNY   74  60  61 W12       29.98F
BURBANK        MOSUNNY   84  58  40 S10       29.94F
ONTARIO        PTSUNNY   87  58  37 SW14      29.93F
RIVERSIDE      PTSUNNY   89  58  34 W13G20    29.93F
PALM SPRINGS   PTSUNNY  105  37   9 SE13      29.84F
EL CENTRO NAS  SUNNY    106  38   9 VRB3      29.77F HX 100
IMPERIAL       SUNNY    106  40  10 VRB5      29.77F HX 100
BLYTHE         SUNNY    108  46  12 SE9       29.79F HX 104
NEEDLES        CLOUDY   109  41  10 W10       29.83F HX 103
$$

NVZ020-UTZ003-130000-
SOUTHERN NEVADA-UTAH

CITY           SKY/WX    TMP DP  RH WIND       PRES   REMARKS
LAS VEGAS      PTSUNNY  103  37  10 SW3       29.90F
SALT LAKE CITY MOSUNNY   94  50  22 NW8       30.12F
$$

NMZ009-TXZ055-130000-
NEW MEXICO-WEST TEXAS

CITY           SKY/WX    TMP DP  RH WIND       PRES   REMARKS
ALBUQUERQUE    MOSUNNY   91  52  26 CALM      30.14F
EL PASO        CLOUDY    83  59  44 E17G26    30.08R
$$


........................KEY........................
SKY/WX - SKY CONDITION/WEATHER
TMP    - TEMPERATURE IN FAHRENHEIT
DP     - DEW POINT IN FAHRENHEIT
RH     - RELATIVE HUMIDITY IN PERCENT
WIND   - DIRECTION AND SPEED IN MILES PER HOUR (MPH)
VRB    - VARIABLE WIND DIRECTION
PRES   - MEAN SEA LEVEL PRESSURE IN INCHES OF MERCURY
         F - FALLING PRESSURE   R - RISING PRESSURE
         S - STEADY PRESSURE
VSB    - VISIBILITY IN MILES
HX     - HEAT INDEX IN FAHRENHEIT
WCI    - WIND CHILL INDEX IN FAHRENHEIT
TC     - TEMPERATURE IN CELSIUS WHICH IS ALSO KNOWN AS
         TEMPERATURE IN CENTIGRADE
AFB    - AIR FORCE BASE
         LUKE AFB IS LUKE AIR FORCE BASE
         DAVIS-MONTHAN IS DAVIS-MONTHAN AIR FORCE BASE
NAS    - NAVAL AIR STATION
         EL CENTRO NAS IS EL CENTRO NAVAL AIR STATION
N/A    - NOT AVAILABLE


USA.gov is the U.S. government's official web portal to all federal, state and local government web resources and services.